User: anonymous   Login
Location: Unspecified
(0.0000°N, 0.0000°E)
Time: 05:22:50
(UTC+00:00)
Language:

DMSP B5D2-8 - Orbit

View from above orbital plane
View from above orbital plane
View from above satellite
View from above satellite

Ground track
Ground track

The orbit data is extracted from the following two-line orbital elements,

1 23533U 95015A   17061.21724410 0.00000020  00000-0  10184-4 0    05
2 23533  98.7786  63.6144 0010000 117.4053 242.5945 14.15811587    01
Epoch (UTC): 02 March 2017 05:12:49
Eccentricity: 0.0010000
inclination: 98.7786°
perigee height: 832 km
apogee height: 847 km
right ascension of ascending node: 63.6144°
argument of perigee: 117.4053°
revolutions per day: 14.15811587
mean anomaly at epoch: 242.5945°
orbit number at epoch: 0

The dashed part of the orbit path shows where the satellite is in the earth's shadow,  

DLR